Location: Newark
(47.5989°N, 4.6950°E)
Time: 14:49:15
(UTC+00:00)

Envisat - Pass Details

Date: 23 November 2019
Orbit: 764 x 766 km, 98.1° (Epoch: 04 December)

Event Time Altitude Azimuth Distance (km) Brightness Sun altitude
Rises 05:10:42 0° 30° (NNE) 3,242 6.5 -17.6°
Reaches altitude 10° 05:14:06 10° 54° (NE) 2,309 6.1 -17.0°
Maximum altitude 05:16:54 15° 87° (E) 1,994 6.2 -16.6°
Drops below altitude 10° 05:19:41 10° 121° (ESE) 2,299 6.6 -16.1°
Sets 05:23:03 0° 145° (SE) 3,219 7.0 -15.6°
